Theta_e
307 307 308 310 310 310 310 310 311 311 310 311 312 313 313 306 307 309 313 311 315 313 313 315 315 316 316 317 317 313 313 313 313 316 316 314 316 318 319 325 333 346 346 345 343
306 307 308 310 310 310 311 311 311 311 310 311 312 313 313 307 310 316 317 315 314 316 317 315 313 314 314 316 315 314 311 314 314 316 316 315 317 317 319 320 342 341 337 342 344
306 306 308 310 310 310 309 311 312 312 311 312 312 313 312 307 319 321 315 316 315 318 318 315 313 314 315 314 315 315 314 314 316 316 315 318 318 318 318 319 323 341 337 337 339
305 305 307 310 311 310 310 311 311 312 312 312 312 313 308 313 315 321 318 315 318 316 316 315 312 314 314 315 313 316 314 314 315 316 316 316 319 319 319 319 317 337 335 337 338
304 305 306 310 311 311 311 313 312 312 311 312 312 312 312 318 316 318 317 314 317 316 316 313 314 316 315 314 314 315 314 314 313 312 312 314 317 318 319 318 318 341 338 337 336
304 304 305 308 311 311 311 313 313 311 311 311 312 308 314 312 317 320 319 315 313 314 313 311 313 315 315 314 313 313 314 313 313 312 313 316 317 318 319 318 318 333 342 339 338
304 304 304 306 310 312 312 312 314 309 308 308 310 314 318 311 320 321 320 320 318 314 313 314 315 315 313 312 314 314 313 312 314 315 315 315 315 317 316 317 317 316 315 329 334
304 304 304 305 309 312 313 313 315 315 307 307 307 317 313 317 319 318 318 319 320 318 317 317 316 314 316 314 313 314 312 311 312 313 315 315 313 315 315 316 316 316 315 332 341
304 304 305 305 308 312 314 315 318 316 311 307 317 320 322 323 320 320 319 317 319 319 318 317 317 315 314 314 312 310 312 313 313 315 315 315 315 314 315 314 315 315 318 337 342
304 304 305 306 308 312 315 316 319 316 322 318 318 320 320 322 321 320 318 318 318 318 315 315 311 312 309 310 314 314 313 312 313 314 316 315 314 317 315 315 316 315 326 334 339
305 305 305 306 307 312 317 316 312 314 323 323 323 324 324 319 320 320 318 319 318 315 316 315 314 314 314 312 313 314 314 314 314 315 317 317 316 315 316 317 318 318 334 336 335
305 305 306 306 308 314 318 316 315 316 315 317 318 320 320 319 318 318 318 317 318 318 317 315 315 315 315 315 314 314 314 314 314 316 318 317 318 316 317 319 317 323 333 335 334
306 306 306 306 310 319 316 317 317 317 314 317 319 318 317 318 318 318 316 316 317 317 317 315 316 318 318 317 317 317 317 318 318 319 318 318 317 317 317 318 317 319 331 333 339
306 306 306 306 317 315 319 316 316 318 318 323 318 318 318 317 318 319 318 318 318 318 318 316 317 319 319 319 318 317 318 319 320 318 317 317 317 316 318 315 321 324 331 331 339
306 306 306 309 310 314 318 315 315 318 326 322 317 318 316 317 317 319 320 318 318 318 318 317 317 317 318 318 318 319 319 319 319 317 318 318 315 315 316 321 328 326 332 340 339
306 306 308 309 311 318 317 315 316 323 330 319 317 316 315 315 316 319 319 318 317 317 317 316 316 318 320 322 321 320 319 319 318 314 318 317 316 320 331 330 328 326 340 337 336
306 307 311 309 310 316 317 314 321 327 322 318 317 316 314 315 316 318 318 316 315 317 318 318 319 320 319 318 320 318 318 322 322 320 321 319 318 334 329 326 325 327 327 330 333
306 312 315 315 316 316 316 317 326 322 317 316 315 315 315 316 317 318 317 316 317 317 317 319 321 317 317 320 322 321 318 323 329 325 325 321 329 336 328 325 323 322 323 322 324
309 317 317 320 320 318 312 321 323 317 315 315 315 317 318 317 317 316 315 317 317 315 318 317 319 317 317 321 321 321 322 321 326 327 326 322 336 332 329 328 325 324 322 322 320
312 316 320 317 318 316 317 322 315 316 316 315 316 317 316 316 317 316 316 317 317 314 314 316 316 317 317 319 320 321 320 324 322 328 333 327 328 335 333 330 327 324 322 322 320
314 315 317 316 317 314 319 322 317 315 316 315 316 316 316 317 317 316 317 316 315 314 314 314 316 316 316 318 321 322 326 326 323 325 331 332 329 333 331 328 327 324 322 322 322
309 316 318 318 313 314 315 316 313 316 315 316 315 316 316 316 316 316 318 317 314 313 315 314 313 316 317 322 323 321 323 323 327 328 326 331 330 328 327 325 325 324 322 321 321
307 311 319 317 315 314 314 317 317 316 315 314 314 314 314 315 315 316 316 317 314 314 313 311 309 311 313 313 316 321 322 324 322 321 325 328 328 324 326 325 324 325 322 322 321
309 316 311 309 310 315 316 316 317 317 315 314 314 314 314 315 314 317 316 317 316 316 319 312 310 311 314 314 314 317 318 322 321 323 325 325 323 326 326 327 322 322 322 322 321
310 312 311 312 312 313 314 317 318 318 315 313 314 315 315 316 316 316 316 315 315 317 313 309 311 314 316 318 317 317 318 317 320 319 320 318 323 323 324 323 323 322 321 321 320
310 310 309 311 312 314 314 317 318 316 314 314 314 314 312 315 315 316 314 314 313 312 312 310 315 318 318 317 316 316 315 317 317 319 317 314 322 318 319 318 320 321 320 318 313
309 310 308 309 311 314 315 316 317 314 314 314 313 312 313 314 312 311 310 310 311 312 310 311 311 311 314 316 315 315 316 315 313 317 313 312 313 312 313 315 314 313 313 313 312
Wind_Speed
26 27 27 24 24 23 21 19 17 15 13 13 11 11 13 15 16 13 7 8 1 8 8 10 9 5 2 3 3 4 3 4 6 2 6 7 10 9 7 8 2 2 10 9 31
27 28 27 26 24 24 21 18 16 14 12 11 11 11 12 13 16 10 6 7 10 5 6 5 4 3 2 2 3 4 4 7 6 3 7 8 5 4 6 3 4 4 3 8 24
28 28 27 25 25 25 23 20 16 12 11 10 8 9 9 10 4 5 7 8 12 9 6 3 3 1 2 1 3 2 5 7 11 10 6 5 7 2 4 5 3 6 5 5 7
28 28 28 24 25 25 24 20 16 13 10 9 7 5 4 4 0 2 6 5 12 9 6 3 3 2 3 4 4 1 8 7 11 9 6 7 3 5 2 5 6 8 8 6 7
28 29 28 24 25 24 23 18 16 14 11 7 4 2 1 1 8 2 1 3 9 12 9 3 1 3 3 4 5 5 9 7 10 10 7 7 7 6 3 8 3 5 5 9 7
29 29 29 25 23 22 21 18 18 16 12 5 2 4 1 2 3 4 4 7 7 10 7 8 6 6 5 5 2 4 4 7 8 9 5 4 5 3 4 6 9 10 10 9 9
30 29 30 25 23 21 20 20 16 14 10 5 4 5 1 10 4 6 2 3 4 9 4 12 6 3 4 7 2 4 9 10 7 5 5 2 7 5 8 5 8 11 7 11 10
31 30 30 26 22 22 21 21 12 9 8 5 7 3 6 7 8 8 8 13 9 8 14 10 9 5 2 3 9 6 4 5 8 9 8 6 9 10 11 5 9 11 9 9 6
31 31 30 26 22 22 22 25 6 2 6 5 3 1 8 7 3 8 10 6 8 11 10 15 3 2 6 4 6 6 4 6 11 1 6 5 12 10 10 7 8 10 2 11 12
34 31 31 25 20 21 24 19 6 1 2 1 4 3 5 3 5 2 3 4 1 2 4 6 6 3 5 5 4 5 5 5 6 8 4 9 10 18 11 8 10 9 10 9 16
34 32 31 23 19 19 21 6 5 3 2 5 5 4 10 2 3 2 5 2 4 6 2 3 3 5 9 7 8 5 6 11 16 16 4 14 9 14 9 5 5 8 13 11 13
34 33 31 21 17 15 12 2 4 5 6 9 13 9 25 12 2 2 8 4 3 1 1 5 5 12 7 8 7 9 12 12 12 11 4 7 9 7 4 4 7 10 15 16 11
35 33 30 23 9 5 12 9 4 10 2 7 5 4 4 5 3 5 6 3 4 2 5 5 8 6 5 9 11 14 6 9 9 10 3 3 7 6 8 3 4 11 6 8 17
36 32 29 25 3 11 8 21 18 4 4 5 3 3 1 2 3 8 11 6 1 5 3 5 5 4 9 8 6 5 10 12 13 2 7 3 8 3 6 8 7 9 16 11 11
37 31 26 12 10 4 11 21 19 2 3 3 2 3 2 2 5 4 7 3 6 7 4 9 7 8 7 6 10 9 10 9 13 6 1 2 3 8 4 10 15 7 10 12 12
37 29 23 5 8 6 16 23 3 5 1 1 3 2 5 5 6 1 1 4 1 2 2 7 7 2 1 3 6 8 8 7 2 2 6 6 6 4 5 8 14 2 8 10 13
36 25 12 5 3 9 17 5 5 3 6 5 4 5 5 4 5 1 2 5 3 6 4 5 5 4 12 8 9 11 8 5 5 3 7 3 4 5 2 11 16 16 12 10 5
36 14 4 5 1 9 10 5 3 2 4 3 5 6 2 8 4 5 5 4 11 5 2 4 6 8 8 4 4 5 4 4 2 4 10 7 5 7 6 13 19 17 15 17 15
32 11 2 2 4 6 5 4 2 3 3 5 6 4 5 7 4 8 7 3 7 7 4 5 4 11 9 3 3 5 2 2 6 4 5 6 5 6 2 15 18 18 19 18 13
15 10 5 4 4 3 5 3 2 3 2 4 4 4 5 6 6 5 4 4 5 4 2 2 5 3 6 5 4 5 2 2 4 3 6 6 5 5 6 10 16 17 15 15 14
7 4 3 6 6 5 2 4 1 3 4 3 2 3 3 4 3 4 3 2 1 3 7 2 3 6 5 4 6 4 3 5 1 2 4 1 6 2 8 12 17 18 12 12 12
7 2 2 14 4 1 2 6 2 2 6 5 3 5 4 4 3 3 3 2 2 3 3 1 4 1 4 4 6 5 5 4 4 3 4 4 4 8 4 9 14 19 20 13 9
3 3 9 6 3 4 6 5 3 2 2 2 3 5 2 1 2 3 4 5 5 3 5 2 2 3 7 5 3 4 3 3 4 3 5 4 4 7 10 5 8 14 15 14 12
2 4 4 4 1 3 5 4 6 6 2 3 2 3 2 2 3 3 5 7 8 3 6 7 3 6 5 7 5 6 6 9 7 3 3 5 6 5 13 4 7 8 12 13 12
2 2 1 4 4 6 2 3 5 4 2 6 2 6 3 2 3 3 5 5 4 6 5 4 5 3 4 6 6 10 9 9 7 10 5 10 9 9 13 10 10 9 7 8 9
2 3 4 4 4 5 3 3 8 2 3 3 0 2 4 3 2 1 2 1 5 3 3 3 3 2 2 5 6 10 14 15 11 14 8 6 9 7 7 7 8 13 11 6 13
8 6 3 5 5 3 1 7 11 4 2 7 4 2 2 3 3 5 6 6 7 4 1 1 3 2 4 4 7 6 3 7 5 7 4 1 6 3 11 12 12 13 13 10 8
Wind_Direction
1 358 355 354 348 340 334 330 326 321 316 317 314 315 322 318 315 302 250 246 125 212 251 292 316 281 284 270 199 121 75 261 255 85 294 309 345 327 321 126 188 230 154 208 180
0 359 358 356 355 350 341 329 324 320 316 316 313 314 325 325 320 271 308 268 217 210 250 249 291 320 352 263 318 108 130 233 225 197 261 307 296 302 17 7 20 356 60 132 160
0 360 0 359 357 357 351 343 327 320 314 309 307 311 329 330 327 252 349 334 196 215 229 236 303 27 243 26 256 201 205 245 279 256 233 259 297 290 53 344 234 187 195 138 160
1 0 359 358 358 356 353 350 341 325 314 305 297 303 326 346 359 241 343 16 177 183 214 306 65 152 226 227 229 213 258 239 274 273 288 254 228 314 117 239 288 208 175 146 178
1 360 360 356 358 358 359 357 354 344 329 310 277 261 55 23 252 276 285 80 147 196 209 186 108 168 228 230 331 188 271 284 270 288 247 272 254 222 251 282 117 138 178 174 214
1 359 359 355 355 359 1 356 352 348 335 317 234 154 96 291 299 226 124 113 139 181 189 175 203 185 269 239 160 273 252 266 288 287 265 243 258 157 261 276 302 153 206 214 207
359 359 358 354 350 354 355 347 340 355 350 341 149 111 300 238 20 203 241 271 170 188 189 226 251 156 275 314 272 285 356 332 312 295 300 344 322 242 245 265 258 281 202 223 216
357 357 357 353 347 346 348 346 333 359 15 65 135 92 247 295 295 249 266 247 240 224 237 266 266 216 70 279 359 9 43 1 295 306 282 109 273 262 254 214 266 269 265 100 56
355 355 354 355 347 340 343 344 336 348 30 113 78 64 276 312 255 242 248 243 258 242 241 258 71 78 16 55 4 2 262 299 307 313 275 163 272 261 238 191 235 258 80 123 109
353 352 351 355 347 339 341 349 353 112 63 345 276 317 277 300 189 100 184 249 276 206 25 30 46 43 13 67 239 252 293 283 266 305 307 290 258 275 224 181 222 236 123 136 125
353 351 349 353 346 338 337 338 21 4 146 218 235 262 281 316 206 189 162 61 54 47 121 305 73 245 245 218 230 241 255 268 279 280 281 290 286 276 222 159 207 124 136 131 124
352 350 346 350 338 335 350 29 278 260 314 244 248 238 256 271 318 181 147 96 69 304 296 10 265 254 242 259 234 249 256 268 277 273 231 305 304 303 275 183 176 141 140 137 129
349 349 344 344 347 356 335 339 0 353 50 294 234 243 210 157 263 168 129 164 168 195 257 184 249 290 234 268 270 269 250 276 249 292 223 323 319 337 313 201 155 137 119 123 138
347 348 344 340 75 342 335 349 349 1 61 278 195 240 286 125 284 165 182 154 39 216 250 251 272 273 296 292 263 261 258 264 271 286 279 131 276 292 279 311 37 151 154 148 142
345 346 339 338 311 303 335 342 332 60 61 186 139 196 9 57 246 238 180 116 209 242 106 255 285 297 298 277 316 291 280 270 278 253 255 238 101 277 2 360 354 276 146 132 122
344 346 332 317 301 325 338 330 336 47 284 124 79 50 24 346 329 57 21 47 202 198 244 244 280 50 14 325 9 330 349 341 312 134 256 238 140 13 11 331 316 180 95 96 96
344 342 318 271 243 334 336 12 50 102 336 10 26 7 329 289 328 68 77 19 38 358 355 333 3 7 18 3 351 38 41 346 330 336 250 355 85 83 66 49 35 42 30 19 48
344 350 319 251 346 324 348 54 92 31 17 9 345 324 294 16 12 8 29 19 32 57 44 46 336 23 359 14 322 331 119 143 218 341 308 287 182 160 135 84 63 44 42 46 24
346 7 6 357 303 293 65 66 231 49 2 359 340 21 9 359 43 25 13 72 37 24 84 27 301 337 21 352 64 312 330 183 145 163 325 287 108 167 152 73 63 47 37 45 42
347 343 314 25 197 96 67 252 60 68 31 17 54 50 11 351 32 33 359 356 129 55 102 308 299 315 339 3 58 97 335 358 27 170 209 269 236 151 166 109 90 60 42 27 2
12 29 285 342 167 52 135 237 102 113 108 80 66 343 359 15 38 0 318 140 93 8 78 80 107 302 10 344 273 5 67 73 135 177 226 131 292 351 169 152 128 115 75 36 325
1 38 329 337 47 50 29 302 312 100 41 42 86 27 30 46 1 340 336 290 178 154 118 235 127 323 286 326 108 129 158 141 158 200 310 297 246 1 249 159 143 135 130 146 215
8 277 1 49 68 354 314 334 322 36 65 74 34 69 30 352 346 271 330 343 171 148 162 165 29 13 348 327 349 85 198 169 115 96 206 164 279 348 300 156 138 144 164 180 179
21 1 332 32 78 79 358 316 342 319 149 96 111 14 335 284 177 272 343 16 355 36 112 90 137 160 202 225 250 294 283 192 176 177 211 221 253 203 263 192 156 167 175 180 192
42 305 242 312 330 333 289 267 297 322 43 39 54 51 35 291 326 354 14 353 357 32 15 99 189 215 247 278 300 302 316 300 207 231 195 271 210 242 202 199 190 179 191 191 211
46 23 349 285 291 339 341 301 258 153 133 290 130 119 74 106 193 284 39 75 257 331 32 4 272 277 262 275 330 316 296 282 275 257 272 251 204 218 151 144 189 185 186 118 126
354 345 105 281 323 355 278 327 305 151 255 116 97 36 35 165 195 219 212 215 219 215 228 227 152 48 271 321 329 312 273 289 69 13 292 115 220 130 81 100 111 106 122 118 115